Zurück zum Katalog

ELEKTRO-L 4

AktivWetterGEO
NORAD 55506·PAYLOAD·🇷🇺 Russia

Gestartet Feb 5, 2023 von Baikonur Cosmodrome

Loading…

TLE

AktuellSource: Space-Track

Epoche: Sep 14, 2026, 13:22 UTC

1 55506U 23016A   26257.55733959 -.00000066  00000-0  00000-0 0  9994
2 55506   0.0526  51.2592 0002208 140.2531 168.4880  1.00270234 13220

Verfolge ELEKTRO-L 4 in Echtzeit mit AllMySat

Download on the App Store